Columbia, SC

3:28 AM EDT on May 25, 2017 (GMT -0400)
Columbia Metro

Weather History for KCAE - April, 2014

Change the Weather History Date:

Wednesday, April 16, 2014

  Actual Average Record
Temperature  
Mean Temperature 50 °F 63 °F  
Max Temperature 61 °F 76 °F 92 °F (2006)
Min Temperature 39 °F 50 °F 29 °F (1950)
Degree Days  
Heating Degree Days 15 4  
Month to date heating degree days 42 83  
Since 1 July heating degree days 2518 2492  
Cooling Degree Days 0 2  
Month to date cooling degree days 41 28  
Year to date cooling degree days 49 50  
Moisture  
Dew Point 27 °F    
Average Humidity 44    
Maximum Humidity 62    
Minimum Humidity 25    
Precipitation  
Precipitation 0.00 in 0.08 in 1.83 in (1969)
Month to date precipitation 1.03 1.40  
Year to date precipitation 11.28 12.32  
Sea Level Pressure  
Sea Level Pressure 30.28 in    
Wind  
Wind Speed 9 mph (NE)    
Max Wind Speed 18 mph    
Max Gust Speed 24 mph    
Visibility 10 miles    
Events      
T = Trace of Precipitation, MM = Missing Value Source: NWS Daily Summary

Daily Weather History Graph

Daily Weather History Graph

Search for Another Location

Airport or City:

Trip Planner

Search our weather history database for the weather conditions in past years. The results will help you decide how hot, cold, wet, or windy it might be!

Date:

Astronomy

Apr. 16, 2014 Rise Set
Actual Time 6:52 AM EDT 7:56 PM EDT
Civil Twilight 6:26 AM EDT 8:22 PM EDT
Nautical Twilight 5:56 AM EDT 8:53 PM EDT
Astronomical Twilight 5:24 AM EDT 9:24 PM EDT
Moon 9:34 PM EDT (4/16) 7:41 AM EDT (4/16)
Length of Visible Light 13h 55m
Length of Day
13h 04m
Full, 98% of the Moon is Illuminated
Apr 16
Full
Apr 22
Last Quarter
Apr 29
New
May 6
First Quarter
May 14
Full

Hourly Weather History & Observations

Time (EDT) Temp. Windchill Dew Point Humidity Pressure Visibility Wind Dir Wind Speed Gust Speed Precip Events Conditions
12:56 AM 46.0 °F 41.9 °F 30.9 °F 56% 30.07 in 10.0 mi North 8.1 mph - N/A   Partly Cloudy
1:56 AM 45.0 °F 40.6 °F 30.9 °F 58% 30.10 in 10.0 mi North 8.1 mph - N/A   Partly Cloudy
2:56 AM 43.0 °F 40.3 °F 30.0 °F 60% 30.14 in 10.0 mi North 4.6 mph - N/A   Partly Cloudy
3:56 AM 42.1 °F 38.4 °F 30.9 °F 65% 30.17 in 10.0 mi North 5.8 mph - N/A   Partly Cloudy
4:56 AM 41.0 °F 35.8 °F 28.9 °F 62% 30.19 in 10.0 mi NNE 8.1 mph - N/A   Clear
5:56 AM 39.9 °F 34.5 °F 26.1 °F 58% 30.23 in 10.0 mi NNE 8.1 mph - N/A   Clear
6:56 AM 39.0 °F 32.8 °F 25.0 °F 57% 30.26 in 10.0 mi NNE 9.2 mph - N/A   Partly Cloudy
7:56 AM 41.0 °F 34.3 °F 25.0 °F 53% 30.30 in 10.0 mi NNE 11.5 mph 19.6 mph N/A   Partly Cloudy
8:56 AM 43.0 °F 36.4 °F 24.1 °F 47% 30.32 in 10.0 mi NNE 12.7 mph - N/A   Clear
9:56 AM 46.0 °F 40.6 °F 21.9 °F 39% 30.34 in 10.0 mi NNE 11.5 mph 21.9 mph N/A   Clear
10:56 AM 48.9 °F - 21.9 °F 35% 30.35 in 10.0 mi ENE 13.8 mph 20.7 mph N/A   Clear
11:56 AM 51.1 °F - 21.9 °F 32% 30.35 in 10.0 mi East 10.4 mph 23.0 mph N/A   Clear
12:56 PM 53.1 °F - 21.0 °F 29% 30.34 in 10.0 mi East 12.7 mph 20.7 mph N/A   Clear
1:56 PM 57.0 °F - 23.0 °F 27% 30.33 in 10.0 mi NE 8.1 mph - N/A   Clear
2:56 PM 57.9 °F - 23.0 °F 26% 30.32 in 10.0 mi East 8.1 mph - N/A   Clear
3:56 PM 60.1 °F - 24.1 °F 25% 30.30 in 10.0 mi ENE 10.4 mph - N/A   Clear
4:56 PM 61.0 °F - 24.1 °F 24% 30.29 in 10.0 mi NNE 9.2 mph - N/A   Clear
5:56 PM 60.1 °F - 25.0 °F 26% 30.30 in 10.0 mi NNE 9.2 mph - N/A   Clear
6:56 PM 59.0 °F - 27.0 °F 29% 30.30 in 10.0 mi ESE 9.2 mph - N/A   Clear
7:56 PM 55.0 °F - 28.9 °F 37% 30.32 in 10.0 mi East 9.2 mph - N/A   Clear
8:56 PM 53.1 °F - 30.9 °F 43% 30.34 in 10.0 mi East 5.8 mph - N/A   Clear
9:56 PM 51.1 °F - 30.9 °F 46% 30.36 in 10.0 mi ENE 6.9 mph - N/A   Clear
10:56 PM 50.0 °F - 30.9 °F 48% 30.38 in 10.0 mi East 6.9 mph - N/A   Clear
11:56 PM 50.0 °F - 28.9 °F 44% 30.39 in 10.0 mi ENE 8.1 mph - N/A   Clear